BREEZE-M DEB, 36964

Orbit data source: Space-Track

BREEZE-M DEB, 36964 is space debris in HEO originally from a launch on Tue, 28 Feb 2006 UTC launched from the Tyuratam Missile And Space Complex (TTMTR). Debris objects in space refer to the collection of defunct objects orbiting the Earth. Examples of debris include non-operational satellites, rocket bodies, and fragments generated from explosions, collisions, or faulty payload assembly.

Loading next visibility...
Identifier
36964, 2006-006CW
Orbit
HEO
Country
Flag of CISCIS
Related business
Manufacturer
Khrunichev
Mission
Spacecraft
Bus & Motor
Unknown
Mass
Unknown
Launch date (UTC)
2006-02-28 (20 years ago)
Launch vehicle
Unknown
Launch site
Tyuratam Missile And Space Complex (TTMTR)
Object type
Payload
Rocket body
Debris
Shape & HBR
Unknown shape, 0.1 m
Radar Cross Section
Medium (>0.1 m² and <1 m²)

Expand to show TLE details & history
Last TLE update: 16 hours ago

TLE from 16 hours ago
0 BREEZE-M DEB
1 36964U 06006CW  26162.56500867  .00002976  00000-0  17722-2 0  9999
2 36964  52.0460 293.0377 4821888  87.1403 324.9759  5.78991835  2949
Epoch: 2026-06-11T13:33Z
TLE epoch observation values (Epoch: 2026-06-11T13:33:36.749Z)
Latitude
-0.00005°
Longitude
-170.28814°
Altitude
3,436.147 km
Speed
7.128 km/s
True Right ascension
19h 32m 05s
True Declination
0° 00' 00"
Sunlit
Object was in full shadow at epoch
Visualization orbit readout
Latitude
Unknown
Longitude
Unknown
Altitude
Unknown
Speed
Unknown
Apparent Right ascension
Unknown
Apparent Declination
Unknown
Sunlit
N/A
Visualization observer readout
Local Sidereal Time
15:41:19
Azimuth
Unknown
Elevation
Unknown
Doppler factor
Unknown
Orbital elements
Apogee altitude
13,039.744 km
Perigee altitude
405.612 km
Semi-major axis
13,100.815 km
Eccentricity
0.48219
Inclination
52.046°
RAAN
293.0377°
Arg. of periapsis
87.1403°
True anomaly
272.96332°
Mean anomaly
324.9759°
Eccentric anomaly
301.39269°
Mean motion
1.44742 °/min
Orbital period
248.72 mins
BSTAR
0.0017722
Loading maneuver chart data...
Computing Atmospheric mass density...
Loading historical data...
Loading historical data...
Loading historical data...
Loading historical data...
Loading historical data...
Loading historical data...
Loading historical data...

Documentation

Showing up to 5 results
|